Triuchirapalli, India

3:16 AM IST on October 19, 2019 (GMT +0530)
Tiruchirappalli

Weather History for VOTR - August, 2019

Change the Weather History Date:

Friday, August 23, 2019

  Actual Average Record
Temperature  
Mean Temperature 88 °F -  
Max Temperature 97 °F 91 °F 100 °F (2002)
Min Temperature 79 °F 78 °F 73 °F (1996)
Cooling Degree Days 23    
Growing Degree Days 38 (Base 50)    
Moisture  
Dew Point 70 °F    
Average Humidity 58    
Maximum Humidity 74    
Minimum Humidity 27    
Precipitation  
Precipitation 0.00 in - - ()
Sea Level Pressure  
Sea Level Pressure 29.74 in    
Wind  
Wind Speed 12 mph ()    
Max Wind Speed 115 mph    
Max Gust Speed 28 mph    
Visibility 3.6 miles    
Events      
Averages and records for this station are not official NWS values.
T = Trace of Precipitation, MM = Missing Value Source: Averaged Metar Reports

Daily Weather History Graph

Daily Weather History Graph

Search for Another Location

Airport or City:

Astronomy

Aug. 23, 2019 Rise Set
Actual Time 6:05 AM IST 6:30 PM IST
Civil Twilight 5:43 AM IST 6:51 PM IST
Nautical Twilight 5:18 AM IST 7:16 PM IST
Astronomical Twilight 4:53 AM IST 7:42 PM IST
Moon 11:57 PM IST (8/23) 11:58 AM IST (8/23)
Length of Visible Light 13h 07m
Length of Day
12h 24m
Waning Gibbous, 54% of the Moon is Illuminated
Aug 23
Waning Gibbous
Aug 23
Last Quarter
Aug 30
New
Sep 6
First Quarter
Sep 14
Full

Hourly Weather History & Observations

Time (IST) Temp. Heat Index Dew Point Humidity Pressure Visibility Wind Dir Wind Speed Gust Speed Precip Events Conditions
1:00 AM 82.4 °F 88.2 °F 73.4 °F 74% 29.74 in 3.1 mi WNW 10.4 mph - N/A   Scattered Clouds
2:00 AM 82.4 °F 87.2 °F 71.6 °F 70% 29.74 in 3.1 mi West 9.2 mph - N/A   Haze
2:30 AM 81 °F - 71 °F 63% 29.75 in 2 mi West 9.2 mph - -   Haze
2:30 AM 80.6 °F 83.9 °F 69.8 °F 70% 29.74 in 3.1 mi West 9.2 mph - N/A   Haze
3:00 AM 80.6 °F 83.9 °F 69.8 °F 70% 29.74 in 3.1 mi West 6.9 mph - N/A   Haze
3:30 AM 80.6 °F 84.6 °F 71.6 °F 74% 29.74 in 3.1 mi West 11.5 mph - N/A   Haze
4:00 AM 80.6 °F 84.6 °F 71.6 °F 74% 29.74 in 3.1 mi West 11.5 mph - N/A   Haze
4:30 AM 80.6 °F 84.6 °F 71.6 °F 74% 29.74 in 3.1 mi West 13.8 mph - N/A   Haze
5:00 AM 80.6 °F 84.6 °F 71.6 °F 74% 29.74 in 3.1 mi West 13.8 mph 25.3 mph N/A   Haze
5:30 AM 81 °F - 71 °F 64% 29.74 in 2 mi West 17.3 mph - -   Haze
5:30 AM 80.6 °F 84.6 °F 71.6 °F 74% 29.74 in 3.1 mi West 13.8 mph 25.3 mph N/A   Haze
6:00 AM 80.6 °F 84.6 °F 71.6 °F 74% 29.74 in 3.1 mi West 11.5 mph 23.0 mph N/A   Haze
6:30 AM 80.6 °F 84.6 °F 71.6 °F 74% 29.74 in 3.1 mi West 11.5 mph 23.0 mph N/A   Haze
7:00 AM 82.4 °F 87.2 °F 71.6 °F 70% 29.77 in 3.1 mi West 9.2 mph 20.7 mph N/A   Haze
7:30 AM 82.4 °F 86.3 °F 69.8 °F 66% 29.77 in 3.1 mi West 13.8 mph - N/A   Haze
8:00 AM 84.2 °F 88.4 °F 69.8 °F 62% 29.77 in 3.7 mi West 115.1 mph 23.0 mph N/A   Mostly Cloudy
8:30 AM 83 °F - 70 °F 57% 29.78 in 2 mi West 13.8 mph - -   Haze
8:30 AM 84.2 °F 88.4 °F 69.8 °F 62% 29.77 in 3.7 mi West 11.5 mph 23.0 mph N/A   Mostly Cloudy
9:00 AM 84.2 °F 88.4 °F 69.8 °F 62% 29.77 in 3.7 mi West 11.5 mph 23.0 mph N/A   Mostly Cloudy
9:30 AM 84.2 °F 88.4 °F 69.8 °F 62% 29.77 in 3.7 mi West 11.5 mph 23.0 mph N/A   Mostly Cloudy
10:00 AM 84.2 °F 88.4 °F 69.8 °F 62% 29.77 in 3.7 mi WNW 13.8 mph 25.3 mph N/A   Scattered Clouds
10:30 AM 86.0 °F 90.4 °F 69.8 °F 58% 29.77 in 3.7 mi West 13.8 mph 25.3 mph N/A   Scattered Clouds
11:00 AM 87.8 °F 92.6 °F 69.8 °F 55% 29.77 in 3.7 mi WNW 11.5 mph 23.0 mph N/A   Scattered Clouds
11:30 AM 92 °F - 70 °F 38% 29.75 in 2 mi West 13.8 mph - -   Haze
11:30 AM 91.4 °F 96.8 °F 69.8 °F 49% 29.77 in 5.0 mi West 11.5 mph 23.0 mph N/A   Scattered Clouds
12:00 PM 93.2 °F 98.8 °F 69.8 °F 46% 29.74 in 5.0 mi West 11.5 mph 23.0 mph N/A   Scattered Clouds
1:30 PM 96.8 °F 101.8 °F 68.0 °F 39% 29.71 in 5.0 mi West 13.8 mph - N/A   Scattered Clouds
2:00 PM 96.8 °F 101.8 °F 68.0 °F 39% 29.68 in 5.0 mi West 9.2 mph 20.7 mph N/A   Scattered Clouds
2:30 PM 98 °F - 67 °F 27% 29.68 in 2 mi West 9.2 mph - -   Haze
2:30 PM 96.8 °F 101.8 °F 68.0 °F 39% 29.68 in 5.0 mi West 9.2 mph 20.7 mph N/A   Mostly Cloudy
3:00 PM 96.8 °F 101.8 °F 68.0 °F 39% 29.68 in 5.0 mi West 9.2 mph 20.7 mph N/A   Mostly Cloudy
3:30 PM 95.0 °F 99.5 °F 68.0 °F 41% 29.68 in 5.0 mi WNW 15.0 mph - N/A   Mostly Cloudy
4:00 PM 95.0 °F 99.5 °F 68.0 °F 41% 29.68 in 5.0 mi West 12.7 mph - N/A   Mostly Cloudy
4:30 PM 95.0 °F 99.5 °F 68.0 °F 41% 29.68 in 5.0 mi West 9.2 mph - N/A   Mostly Cloudy
5:00 PM 93.2 °F 98.8 °F 69.8 °F 46% 29.68 in 5.0 mi SSW 9.2 mph - N/A   Mostly Cloudy
5:30 PM 91 °F - 72 °F 44% 29.68 in 2 mi SSW 9.2 mph - -   Haze
5:30 PM 91.4 °F 98.4 °F 71.6 °F 52% 29.68 in 5.0 mi SSW 9.2 mph - N/A   Mostly Cloudy
6:00 PM 91.4 °F 98.4 °F 71.6 °F 52% 29.71 in 3.7 mi SSW 9.2 mph - N/A   Mostly Cloudy
6:30 PM 89.6 °F 96.2 °F 71.6 °F 55% 29.74 in 3.7 mi SW 6.9 mph - N/A   Mostly Cloudy
7:00 PM 87.8 °F 93.8 °F 71.6 °F 58% 29.74 in 3.7 mi West 9.2 mph - N/A   Mostly Cloudy
7:30 PM 87.8 °F 93.8 °F 71.6 °F 58% 29.77 in 3.7 mi West 11.5 mph - N/A   Mostly Cloudy
8:00 PM 86.0 °F 91.8 °F 71.6 °F 62% 29.77 in 3.7 mi West 13.8 mph - N/A   Mostly Cloudy
8:30 PM 86 °F - 69 °F 48% 29.79 in 2 mi WNW 12.7 mph - -   Haze
8:30 PM 86.0 °F 90.4 °F 69.8 °F 58% 29.80 in 3.7 mi WNW 12.7 mph 25.3 mph N/A   Mostly Cloudy
9:00 PM 86.0 °F 90.4 °F 69.8 °F 58% 29.80 in 3.7 mi West 16.1 mph 27.6 mph N/A   Mostly Cloudy
9:30 PM 84.2 °F 88.4 °F 69.8 °F 62% 29.80 in 3.7 mi WNW 12.7 mph 24.2 mph N/A   Mostly Cloudy
10:00 PM 84.2 °F 88.4 °F 69.8 °F 62% 29.80 in 3.7 mi West 11.5 mph 23.0 mph N/A   Light Drizzle
11:00 PM 84.2 °F 88.4 °F 69.8 °F 62% 29.80 in 3.7 mi West 11.5 mph - N/A   Mostly Cloudy
11:30 PM 83 °F - 70 °F 56% 29.80 in 2 mi West 11.5 mph - -   Haze
11:30 PM 82.4 °F 86.3 °F 69.8 °F 66% 29.80 in 3.7 mi West 11.5 mph 23.0 mph N/A   Mostly Cloudy